User: anonymous   Login
Location: Newark
(48.1500°N, 2.9667°W)
Time: 01:54:12
(UTC+00:00)
Language:

Altair - Orbit

View from above orbital plane
View from above orbital plane
View from above satellite
View from above satellite

Ground track
Ground track

The orbit data is extracted from the following two-line orbital elements,

1    50U 60009B   20025.56471122 -.00000054 +00000-0 +29047-3 0  9992
2    50 047.2286 207.8518 0113330 256.8171 101.9953 12.20109035652653
Epoch (UTC): 25 January 2020 13:33:11
Eccentricity: 0.0113330
inclination: 47.2286°
perigee height: 1502 km
apogee height: 1682 km
right ascension of ascending node: 207.8518°
argument of perigee: 256.8171°
revolutions per day: 12.20109035
mean anomaly at epoch: 101.9953°
orbit number at epoch: 65265

The dashed part of the orbit path shows where the satellite is in the earth's shadow,  

DLR